Dickinson, ND

6:36 AM MDT on June 22, 2017 (GMT -0600)
Dickinson Municipal

Weather History for KDIK - January, 2014

Change the Weather History Date:

Friday, January 31, 2014

  Actual Average Record
Temperature  
Mean Temperature 7 °F 18 °F  
Max Temperature 22 °F 28 °F 60 °F (1992)
Min Temperature -8 °F 7 °F -47 °F (1893)
Degree Days  
Heating Degree Days 58 47  
Month to date heating degree days 1478 1508  
Since 1 July heating degree days 5133 5047  
Cooling Degree Days 0 0  
Month to date cooling degree days 0 0  
Year to date cooling degree days 0 0  
Moisture  
Dew Point 0 °F    
Average Humidity 70    
Maximum Humidity 83    
Minimum Humidity 57    
Precipitation  
Precipitation T in 0.01 in 0.20 in (1926)
Month to date precipitation 0.04 0.30  
Year to date precipitation 0.04 0.30  
Sea Level Pressure  
Sea Level Pressure 29.91 in    
Wind  
Wind Speed 15 mph (West)    
Max Wind Speed 29 mph    
Max Gust Speed 35 mph    
Visibility 10 miles    
Events Snow    
T = Trace of Precipitation, MM = Missing Value Source: NWS Daily Summary

Daily Weather History Graph

Daily Weather History Graph

Search for Another Location

Airport or City:

Trip Planner

Search our weather history database for the weather conditions in past years. The results will help you decide how hot, cold, wet, or windy it might be!

Date:

Astronomy

Jan. 31, 2014 Rise Set
Actual Time 7:16 AM MST 4:53 PM MST
Civil Twilight 6:44 AM MST 5:25 PM MST
Nautical Twilight 6:07 AM MST 6:02 PM MST
Astronomical Twilight 5:32 AM MST 6:37 PM MST
Moon 7:21 AM MST (1/31) 6:28 PM MST (1/31)
Length of Visible Light 10h 41m
Length of Day
9h 36m
New Moon, 1% of the Moon is Illuminated
Jan 31
New Moon
Feb 6
First Quarter
Feb 14
Full
Feb 22
Last Quarter
Mar 1
New

Hourly Weather History & Observations

Time (MST) Temp. Windchill Dew Point Humidity Pressure Visibility Wind Dir Wind Speed Gust Speed Precip Events Conditions
12:56 AM -4.0 °F -21.2 °F -9.0 °F 79% 30.04 in 10.0 mi West 10.4 mph - N/A   Clear
1:56 AM -4.0 °F -23.7 °F -9.0 °F 79% 30.03 in 10.0 mi West 13.8 mph - N/A   Clear
2:56 AM -4.0 °F -22.1 °F -9.9 °F 76% 30.03 in 10.0 mi West 11.5 mph - N/A   Clear
3:56 AM -5.1 °F -21.5 °F -11.0 °F 76% 30.02 in 10.0 mi West 9.2 mph - N/A   Clear
4:56 AM -4.0 °F -23.0 °F -9.9 °F 76% 30.01 in 10.0 mi West 12.7 mph - N/A   Clear
5:56 AM -5.1 °F -24.3 °F -11.0 °F 76% 29.99 in 10.0 mi WSW 12.7 mph - N/A   Clear
6:56 AM -6.0 °F -23.6 °F -11.0 °F 79% 29.99 in 10.0 mi WSW 10.4 mph - N/A   Clear
7:56 AM -4.0 °F -16.3 °F -9.0 °F 79% 29.97 in 8.0 mi SW 5.8 mph - N/A   Clear
8:56 AM 5.0 °F -13.6 °F -0.0 °F 80% 29.94 in 10.0 mi SW 16.1 mph - N/A   Clear
9:56 AM 10.9 °F -2.6 °F 3.0 °F 70% 29.91 in 10.0 mi SW 10.4 mph - N/A   Clear
10:56 AM 14.0 °F -0.8 °F 3.9 °F 64% 29.89 in 10.0 mi SW 13.8 mph - N/A   Clear
11:56 AM 16.0 °F 0.1 °F 5.0 °F 62% 29.85 in 10.0 mi SW 17.3 mph - N/A   Overcast
12:56 PM 18.0 °F 4.2 °F 8.1 °F 65% 29.81 in 10.0 mi SSW 13.8 mph - N/A   Partly Cloudy
1:56 PM 19.9 °F 5.2 °F 10.0 °F 65% 29.79 in 10.0 mi WSW 17.3 mph - N/A   Clear
2:56 PM 21.9 °F 9.2 °F 10.9 °F 63% 29.78 in 10.0 mi WSW 13.8 mph - N/A   Clear
3:56 PM 21.0 °F 5.4 °F 9.0 °F 60% 29.78 in 10.0 mi West 20.7 mph - N/A   Mostly Cloudy
4:56 PM 16.0 °F 0.1 °F 6.1 °F 65% 29.81 in 10.0 mi West 17.3 mph - N/A   Clear
5:56 PM 10.9 °F -4.7 °F 3.0 °F 70% 29.86 in 10.0 mi West 13.8 mph - N/A   Clear
6:56 PM 12.0 °F -6.5 °F 3.9 °F 70% 29.89 in 10.0 mi WNW 20.7 mph - N/A   Scattered Clouds
7:56 PM 10.9 °F -5.9 °F 3.0 °F 70% 29.92 in 10.0 mi WNW 16.1 mph - N/A   Clear
8:41 PM 10.9 °F -8.8 °F 3.9 °F 73% 29.76 in 10.0 mi WNW 23.0 mph 28.8 mph N/A   Mostly Cloudy
8:56 PM 10.9 °F -8.8 °F 3.9 °F 73% 29.93 in 10.0 mi WNW 23.0 mph 31.1 mph N/A   Mostly Cloudy
9:23 PM 10.9 °F -7.5 °F 3.0 °F 70% 29.78 in 10.0 mi NW 19.6 mph 27.6 mph N/A   Overcast
9:56 PM 10.9 °F -8.3 °F 3.0 °F 70% 29.95 in 10.0 mi NW 21.9 mph 26.5 mph N/A   Overcast
10:56 PM 8.1 °F -12.2 °F 1.9 °F 76% 29.98 in 2.0 mi NNW 21.9 mph 29.9 mph 0.00 in Snow Light Snow
11:05 PM 8.1 °F -13.0 °F -0.0 °F 70% 29.83 in 6.0 mi NNW 24.2 mph 28.8 mph 0.00 in Snow Light Snow
11:56 PM 5.0 °F -16.7 °F -2.9 °F 70% 30.00 in 10.0 mi NW 23.0 mph - 0.00 in   Overcast